Orbital Elements at Epoch 2459000.5 (2020-May-31.0) TDB
Reference: JPL 17 (heliocentric ecliptic J2000)
Element | Value | Uncertainty (1-sigma) | Units |
e | .1668520688066761 | 3.3277e-08 | |
a | 2.402681787523607 | 1.108e-08 | au |
q | 2.001789360591171 | 7.9728e-08 | au |
i | .9016271554264715 | 5.8788e-06 | deg |
node | 347.2749716709027 | 0.00023584 | deg |
peri | 89.95188923573237 | 0.00023665 | deg |
M | 132.9708354630496 | 1.8078e-05 | deg |
tp | 2458498.045536961765 (2019-Jan-14.54553696) | 6.7962e-05 | TDB |
period | 1360.325413192048 3.72 | 9.4099e-06 2.576e-08 | d yr |
n | .2646425601615781 | 1.8306e-09 | deg/d |
Q | 2.803574214456043 | 1.2929e-08 | au |
|
| | Orbit Determination Parameters
Additional Information
|